| time (UTC) | temp C | wind direction | speed KPH | gust KPH | rain 1hr cm | rain 24hr cm | rain mn cm | humidity % | barometer mb |
| 20260505225821 | 8 | 297 | 0.0 | 0.0 | 0.00 | 0.00 | 0.00 | 80 | 1018.1 |
| 20260505225318 | 9 | 265 | 0.0 | 0.0 | 0.00 | 0.00 | 0.00 | 80 | 1018.2 |
| 20260505224813 | 9 | 269 | 0.0 | 0.0 | 0.00 | 0.00 | 0.00 | 79 | 1018.2 |
| 20260505224311 | 10 | 244 | 3.2 | 3.2 | 0.00 | 0.00 | 0.00 | 79 | 1018.4 |
| 20260505223808 | 9 | 277 | 1.6 | 1.6 | 0.00 | 0.00 | 0.00 | 78 | 1018.4 |
| 20260505223305 | 9 | 297 | 1.6 | 1.6 | 0.00 | 0.00 | 0.00 | 76 | 1018.1 |
| 20260505222800 | 10 | 110 | 0.0 | 0.0 | 0.00 | 0.00 | 0.00 | 75 | 1018.0 |
| 20260505222258 | 10 | 274 | 0.0 | 0.0 | 0.00 | 0.00 | 0.00 | 73 | 1018.0 |
| 20260505221755 | 10 | 298 | 1.6 | 1.6 | 0.00 | 0.00 | 0.00 | 72 | 1018.4 |
| 20260505221251 | 11 | 166 | 1.6 | 3.2 | 0.00 | 0.00 | 0.00 | 71 | 1018.4 |
| 20260505220747 | 11 | 216 | 1.6 | 1.6 | 0.00 | 0.00 | 0.00 | 71 | 1018.5 |
| 20260505220245 | 11 | 241 | 4.8 | 4.8 | 0.00 | 0.00 | 0.00 | 72 | 1018.4 |
| 20260505215743 | 11 | 282 | 8.0 | 11.3 | 0.00 | 0.05 | 0.05 | 71 | 1018.6 |
| 20260505215240 | 12 | 282 | 4.8 | 4.8 | 0.00 | 0.05 | 0.05 | 70 | 1018.1 |
| 20260505214738 | 12 | 274 | 8.0 | 9.7 | 0.00 | 0.05 | 0.05 | 70 | 1018.2 |
| 20260505214235 | 11 | 287 | 11.3 | 12.9 | 0.00 | 0.05 | 0.05 | 70 | 1018.2 |
| 20260505213732 | 11 | 270 | 4.8 | 4.8 | 0.00 | 0.05 | 0.05 | 71 | 1018.4 |
| 20260505213229 | 11 | 272 | 8.0 | 11.3 | 0.00 | 0.05 | 0.05 | 72 | 1018.1 |
| 20260505212725 | 11 | 281 | 8.0 | 9.7 | 0.00 | 0.05 | 0.05 | 73 | 1018.5 |
| 20260505212223 | 11 | 265 | 4.8 | 8.0 | 0.00 | 0.05 | 0.05 | 73 | 1018.7 |
| 20260505211720 | 11 | 273 | 4.8 | 8.0 | 0.00 | 0.05 | 0.05 | 72 | 1018.4 |
| 20260505211217 | 11 | 287 | 9.7 | 12.9 | 0.00 | 0.05 | 0.05 | 72 | 1018.4 |
| 20260505210713 | 11 | 280 | 14.5 | 16.1 | 0.00 | 0.05 | 0.05 | 73 | 1018.4 |
| 20260505210210 | 11 | 232 | 11.3 | 12.9 | 0.00 | 0.05 | 0.05 | 72 | 1018.0 |
| 20260505205708 | 11 | 251 | 12.9 | 16.1 | 0.00 | 0.05 | 0.05 | 72 | 1018.0 |
| 20260505205206 | 11 | 275 | 6.4 | 11.3 | 0.00 | 0.05 | 0.05 | 73 | 1018.0 |
| 20260505204702 | 11 | 304 | 12.9 | 16.1 | 0.00 | 0.05 | 0.05 | 72 | 1017.7 |
| 20260505204200 | 11 | 264 | 9.7 | 12.9 | 0.00 | 0.05 | 0.05 | 72 | 1017.7 |
| 20260505203657 | 11 | 278 | 11.3 | 14.5 | 0.00 | 0.05 | 0.05 | 72 | 1017.5 |
| 20260505203154 | 11 | 265 | 8.0 | 8.0 | 0.00 | 0.05 | 0.05 | 73 | 1017.8 |
| 20260505202649 | 11 | 271 | 0.0 | 0.0 | 0.00 | 0.05 | 0.05 | 74 | 1017.8 |
| 20260505202146 | 11 | 256 | 8.0 | 9.7 | 0.00 | 0.05 | 0.05 | 75 | 1017.9 |
| 20260505201642 | 11 | 292 | 9.7 | 11.3 | 0.00 | 0.05 | 0.05 | 75 | 1017.9 |
| 20260505201141 | 11 | 272 | 9.7 | 12.9 | 0.00 | 0.05 | 0.05 | 74 | 1018.0 |
| 20260505200638 | 11 | 249 | 3.2 | 3.2 | 0.00 | 0.05 | 0.05 | 74 | 1017.8 |
| 20260505200135 | 11 | 349 | 6.4 | 9.7 | 0.00 | 0.05 | 0.05 | 75 | 1018.0 |
| 20260505195631 | 11 | 292 | 1.6 | 3.2 | 0.00 | 0.05 | 0.05 | 75 | 1017.8 |
| 20260505195128 | 10 | 287 | 3.2 | 3.2 | 0.00 | 0.05 | 0.05 | 75 | 1017.9 |
| 20260505194625 | 11 | 296 | 3.2 | 3.2 | 0.00 | 0.05 | 0.05 | 74 | 1017.8 |
| 20260505194121 | 11 | 30 | 6.4 | 8.0 | 0.00 | 0.05 | 0.05 | 75 | 1017.7 |
| 20260505193618 | 11 | 351 | 1.6 | 1.6 | 0.00 | 0.05 | 0.05 | 74 | 1017.8 |
| 20260505193115 | 11 | 300 | 1.6 | 3.2 | 0.00 | 0.05 | 0.05 | 73 | 1017.8 |
| 20260505192614 | 11 | 292 | 1.6 | 3.2 | 0.00 | 0.05 | 0.05 | 73 | 1017.8 |
| 20260505192111 | 11 | 249 | 1.6 | 1.6 | 0.00 | 0.05 | 0.05 | 72 | 1017.8 |
| 20260505191609 | 11 | 145 | 1.6 | 1.6 | 0.00 | 0.05 | 0.05 | 72 | 1017.7 |
| 20260505191108 | 11 | 133 | 3.2 | 3.2 | 0.00 | 0.05 | 0.05 | 72 | 1017.7 |
| 20260505190603 | 12 | 269 | 0.0 | 1.6 | 0.00 | 0.05 | 0.05 | 71 | 1017.7 |
| 20260505190058 | 12 | 231 | 1.6 | 1.6 | 0.00 | 0.05 | 0.05 | 70 | 1017.5 |
| 20260505185555 | 12 | 235 | 12.9 | 14.5 | 0.00 | 0.05 | 0.05 | 70 | 1017.3 |
| 20260505185052 | 12 | 256 | 11.3 | 14.5 | 0.00 | 0.05 | 0.05 | 70 | 1017.4 |
| 20260505184548 | 12 | 232 | 16.1 | 16.1 | 0.00 | 0.05 | 0.05 | 70 | 1017.3 |
| 20260505184045 | 12 | 229 | 8.0 | 14.5 | 0.00 | 0.05 | 0.05 | 70 | 1017.3 |
| 20260505183542 | 12 | 234 | 4.8 | 9.7 | 0.00 | 0.05 | 0.05 | 70 | 1017.2 |
| 20260505183039 | 12 | 253 | 9.7 | 14.5 | 0.00 | 0.05 | 0.05 | 72 | 1017.1 |
| 20260505182535 | 11 | 256 | 12.9 | 16.1 | 0.00 | 0.05 | 0.05 | 73 | 1017.0 |
| 20260505182032 | 11 | 238 | 9.7 | 12.9 | 0.00 | 0.05 | 0.05 | 75 | 1017.2 |
| 20260505181529 | 12 | 275 | 6.4 | 9.7 | 0.00 | 0.05 | 0.05 | 75 | 1017.0 |
| 20260505181026 | 12 | 236 | 17.7 | 24.1 | 0.00 | 0.05 | 0.05 | 74 | 1016.9 |
| 20260505180521 | 12 | 251 | 16.1 | 17.7 | 0.00 | 0.05 | 0.05 | 73 | 1016.9 |
| 20260505180021 | 12 | 238 | 9.7 | 11.3 | 0.00 | 0.05 | 0.05 | 73 | 1017.0 |
| 20260505175515 | 12 | 240 | 14.5 | 17.7 | 0.00 | 0.05 | 0.05 | 72 | 1016.7 |
| 20260505175012 | 12 | 268 | 14.5 | 22.5 | 0.00 | 0.05 | 0.05 | 72 | 1016.3 |
| 20260505174509 | 12 | 264 | 14.5 | 22.5 | 0.00 | 0.05 | 0.05 | 72 | 1016.6 |
| 20260505174005 | 12 | 239 | 17.7 | 22.5 | 0.00 | 0.05 | 0.05 | 73 | 1016.7 |
| 20260505173502 | 12 | 263 | 11.3 | 14.5 | 0.00 | 0.05 | 0.05 | 73 | 1016.6 |
| 20260505172958 | 11 | 253 | 6.4 | 11.3 | 0.00 | 0.05 | 0.05 | 74 | 1016.4 |
| 20260505172457 | 11 | 260 | 6.4 | 9.7 | 0.00 | 0.05 | 0.05 | 74 | 1016.3 |
| 20260505171956 | 11 | 158 | 4.8 | 4.8 | 0.00 | 0.05 | 0.05 | 74 | 1016.3 |
| 20260505171453 | 11 | 95 | 8.0 | 14.5 | 0.00 | 0.05 | 0.05 | 75 | 1016.3 |
| 20260505170949 | 11 | 276 | 12.9 | 14.5 | 0.00 | 0.05 | 0.05 | 76 | 1015.9 |
| 20260505170446 | 11 | 301 | 9.7 | 11.3 | 0.00 | 0.05 | 0.05 | 76 | 1016.3 |
| 20260505165941 | 11 | 239 | 9.7 | 12.9 | 0.00 | 0.05 | 0.05 | 77 | 1016.6 |
| 20260505165438 | 11 | 246 | 6.4 | 9.7 | 0.00 | 0.05 | 0.05 | 77 | 1016.6 |
| 20260505164933 | 11 | 93 | 4.8 | 4.8 | 0.00 | 0.05 | 0.05 | 78 | 1016.5 |
| 20260505164430 | 11 | 249 | 6.4 | 8.0 | 0.00 | 0.05 | 0.05 | 77 | 1016.5 |
| 20260505163928 | 11 | 278 | 8.0 | 9.7 | 0.00 | 0.05 | 0.05 | 78 | 1016.4 |
| 20260505163427 | 11 | 242 | 6.4 | 8.0 | 0.00 | 0.05 | 0.05 | 78 | 1016.3 |
| 20260505162926 | 11 | 294 | 8.0 | 12.9 | 0.00 | 0.05 | 0.05 | 77 | 1016.4 |
| 20260505162421 | 11 | 274 | 6.4 | 9.7 | 0.00 | 0.05 | 0.05 | 77 | 1015.9 |
| 20260505161918 | 11 | 260 | 14.5 | 16.1 | 0.00 | 0.05 | 0.05 | 78 | 1015.9 |
| 20260505161414 | 11 | 246 | 14.5 | 17.7 | 0.00 | 0.05 | 0.05 | 79 | 1015.7 |
| 20260505160912 | 11 | 233 | 11.3 | 14.5 | 0.00 | 0.05 | 0.05 | 80 | 1015.9 |
| 20260505160410 | 11 | 233 | 14.5 | 17.7 | 0.00 | 0.05 | 0.05 | 79 | 1015.8 |
| 20260505153344 | 11 | 240 | 14.5 | 16.1 | 0.00 | 0.03 | 0.03 | 79 | 1016.0 |
| 20260505152840 | 11 | 225 | 14.5 | 17.7 | 0.00 | 0.03 | 0.03 | 77 | 1016.1 |
| 20260505152337 | 12 | 253 | 4.8 | 8.0 | 0.00 | 0.03 | 0.03 | 76 | 1015.9 |
| 20260505151831 | 12 | 299 | 12.9 | 17.7 | 0.00 | 0.03 | 0.03 | 76 | 1015.4 |
| 20260505151328 | 12 | 250 | 11.3 | 14.5 | 0.00 | 0.03 | 0.03 | 77 | 1015.7 |
| 20260505150825 | 12 | 318 | 8.0 | 11.3 | 0.00 | 0.03 | 0.03 | 76 | 1015.6 |
| 20260505150322 | 12 | 275 | 9.7 | 11.3 | 0.00 | 0.03 | 0.03 | 74 | 1015.7 |
| 20260505140246 | 14 | 325 | 9.7 | 11.3 | 0.00 | 0.03 | 0.03 | 61 | 1014.9 |
| 20260505130210 | 15 | 280 | 12.9 | 14.5 | 0.00 | 0.03 | 0.03 | 54 | 1014.7 |
| 20260505124700 | 15 | 276 | 12.9 | 20.9 | 0.00 | 0.03 | 0.03 | 58 | 1014.7 |
| 20260505124157 | 15 | 270 | 6.4 | 11.3 | 0.00 | 0.03 | 0.03 | 60 | 1014.6 |
| 20260505123653 | 15 | 248 | 8.0 | 11.3 | 0.00 | 0.03 | 0.03 | 58 | 1014.8 |
| 20260505123150 | 15 | 245 | 8.0 | 9.7 | 0.00 | 0.03 | 0.03 | 57 | 1014.6 |
| 20260505122646 | 15 | 234 | 4.8 | 8.0 | 0.00 | 0.03 | 0.03 | 58 | 1014.7 |
| 20260505122143 | 15 | 277 | 8.0 | 11.3 | 0.00 | 0.03 | 0.03 | 57 | 1014.6 |
| 20260505121640 | 15 | 240 | 11.3 | 14.5 | 0.00 | 0.03 | 0.03 | 59 | 1014.5 |
| 20260505121137 | 16 | 238 | 14.5 | 17.7 | 0.00 | 0.03 | 0.03 | 57 | 1014.6 |
| 20260505120627 | 16 | 225 | 12.9 | 14.5 | 0.00 | 0.03 | 0.03 | 59 | 1014.5 |
| 20260505120123 | 16 | 255 | 11.3 | 17.7 | 0.00 | 0.03 | 0.03 | 59 | 1014.8 |
| 20260505115618 | 16 | 244 | 8.0 | 9.7 | 0.00 | 0.03 | 0.03 | 60 | 1014.5 |
| 20260505115115 | 16 | 274 | 9.7 | 11.3 | 0.00 | 0.03 | 0.03 | 60 | 1014.9 |
| 20260505114612 | 15 | 309 | 9.7 | 11.3 | 0.00 | 0.03 | 0.03 | 61 | 1014.8 |
| 20260505114109 | 15 | 322 | 11.3 | 14.5 | 0.00 | 0.03 | 0.03 | 64 | 1015.0 |
| 20260505113605 | 14 | 248 | 4.8 | 8.0 | 0.00 | 0.03 | 0.03 | 66 | 1015.2 |
| 20260505113102 | 14 | 274 | 6.4 | 8.0 | 0.00 | 0.03 | 0.03 | 68 | 1015.1 |
| 20260505112558 | 13 | 300 | 6.4 | 9.7 | 0.00 | 0.03 | 0.03 | 69 | 1015.2 |
| 20260505112056 | 13 | 305 | 11.3 | 12.9 | 0.00 | 0.03 | 0.03 | 69 | 1015.2 |
| 20260505111555 | 13 | 300 | 8.0 | 11.3 | 0.00 | 0.03 | 0.03 | 70 | 1015.1 |
| 20260505111051 | 13 | 296 | 6.4 | 8.0 | 0.00 | 0.03 | 0.03 | 71 | 1015.4 |
| 20260505110548 | 13 | 306 | 8.0 | 11.3 | 0.00 | 0.03 | 0.03 | 71 | 1015.7 |
| 20260505102020 | 12 | 53 | 3.2 | 3.2 | 0.00 | 0.03 | 0.03 | 86 | 1016.1 |
| 20260505101519 | 13 | 37 | 3.2 | 4.8 | 0.00 | 0.03 | 0.03 | 87 | 1016.4 |
| 20260505101015 | 12 | 11 | 3.2 | 3.2 | 0.00 | 0.03 | 0.03 | 88 | 1016.4 |
| 20260505100512 | 12 | 330 | 3.2 | 3.2 | 0.00 | 0.03 | 0.03 | 89 | 1016.5 |
| 20260505100009 | 12 | 353 | 1.6 | 1.6 | 0.00 | 0.03 | 0.03 | 89 | 1016.3 |
| 20260505095505 | 11 | 55 | 4.8 | 4.8 | 0.00 | 0.03 | 0.03 | 90 | 1016.4 |
| 20260505095001 | 12 | 39 | 3.2 | 4.8 | 0.00 | 0.03 | 0.03 | 90 | 1016.5 |
| 20260505094458 | 12 | 60 | 4.8 | 8.0 | 0.00 | 0.03 | 0.03 | 90 | 1016.6 |
| 20260505093954 | 12 | 19 | 3.2 | 3.2 | 0.00 | 0.03 | 0.03 | 91 | 1016.6 |
| 20260505093451 | 12 | 13 | 4.8 | 8.0 | 0.00 | 0.03 | 0.03 | 91 | 1016.7 |
| 20260505092949 | 11 | 79 | 3.2 | 3.2 | 0.00 | 0.03 | 0.03 | 91 | 1016.6 |
| 20260505092446 | 12 | 37 | 1.6 | 3.2 | 0.00 | 0.03 | 0.03 | 92 | 1016.6 |
| 20260505091943 | 11 | 23 | 1.6 | 3.2 | 0.00 | 0.03 | 0.03 | 92 | 1016.6 |
| 20260505091441 | 12 | 353 | 4.8 | 4.8 | 0.00 | 0.03 | 0.03 | 92 | 1016.6 |
| 20260505090939 | 11 | 346 | 4.8 | 4.8 | 0.00 | 0.03 | 0.03 | 93 | 1016.8 |
| 20260505090437 | 11 | 357 | 1.6 | 3.2 | 0.00 | 0.03 | 0.03 | 93 | 1016.7 |
| 20260505085934 | 11 | 1 | 6.4 | 8.0 | 0.00 | 0.03 | 0.03 | 93 | 1016.8 |
| 20260505085431 | 11 | 100 | 3.2 | 3.2 | 0.00 | 0.03 | 0.03 | 94 | 1016.8 |
| 20260505084930 | 11 | 78 | 6.4 | 8.0 | 0.00 | 0.03 | 0.03 | 93 | 1016.7 |
| 20260505084427 | 11 | 136 | 4.8 | 4.8 | 0.00 | 0.03 | 0.03 | 93 | 1016.7 |
| 20260505083925 | 11 | 310 | 1.6 | 1.6 | 0.00 | 0.03 | 0.03 | 94 | 1016.7 |
| 20260505083423 | 11 | 330 | 1.6 | 1.6 | 0.00 | 0.03 | 0.03 | 94 | 1016.9 |
| 20260505082918 | 11 | 289 | 1.6 | 1.6 | 0.00 | 0.03 | 0.03 | 94 | 1016.9 |
| 20260505082414 | 11 | 333 | 1.6 | 1.6 | 0.00 | 0.03 | 0.03 | 94 | 1017.1 |
| 20260505081912 | 11 | 305 | 0.0 | 1.6 | 0.00 | 0.03 | 0.03 | 94 | 1016.9 |
| 20260505081408 | 11 | 311 | 1.6 | 1.6 | 0.00 | 0.03 | 0.03 | 94 | 1017.0 |
| 20260505080905 | 11 | 303 | 1.6 | 3.2 | 0.00 | 0.03 | 0.03 | 94 | 1017.1 |
| 20260505080401 | 11 | 302 | 0.0 | 1.6 | 0.00 | 0.03 | 0.03 | 94 | 1017.0 |
| 20260505075856 | 11 | 296 | 0.0 | 0.0 | 0.00 | 0.03 | 0.03 | 94 | 1016.9 |
| 20260505075353 | 11 | 307 | 0.0 | 0.0 | 0.00 | 0.03 | 0.03 | 94 | 1016.9 |
| 20260505074851 | 11 | 293 | 0.0 | 0.0 | 0.00 | 0.03 | 0.03 | 94 | 1017.1 |
| 20260505074348 | 10 | 292 | 0.0 | 1.6 | 0.18 | 0.03 | 0.03 | 94 | 1016.9 |
| 20260505073845 | 10 | 336 | 3.2 | 3.2 | 0.18 | 0.03 | 0.03 | 94 | 1017.0 |
| 20260505073343 | 10 | 329 | 1.6 | 3.2 | 0.00 | 0.00 | 0.00 | 94 | 1017.0 |
| 20260505072840 | 10 | 328 | 1.6 | 3.2 | 0.00 | 0.00 | 0.00 | 94 | 1017.0 |
| 20260505072336 | 10 | 299 | 0.0 | 0.0 | 0.00 | 0.00 | 0.00 | 94 | 1017.1 |
| 20260505071832 | 10 | 335 | 1.6 | 1.6 | 0.00 | 0.00 | 0.00 | 94 | 1017.1 |
| 20260505071328 | 10 | 325 | 1.6 | 3.2 | 0.00 | 0.00 | 0.00 | 94 | 1016.8 |
| 20260505070827 | 10 | 23 | 1.6 | 3.2 | 0.00 | 0.00 | 0.00 | 94 | 1016.6 |
| 20260505070323 | 10 | 259 | 0.0 | 0.0 | 0.00 | 0.00 | 0.00 | 94 | 1016.8 |
| 20260505065818 | 10 | 276 | 0.0 | 0.0 | 0.00 | 0.00 | 0.00 | 94 | 1016.6 |
| 20260505065315 | 10 | 241 | 0.0 | 0.0 | 0.00 | 0.00 | 0.00 | 94 | 1016.6 |
| 20260505064813 | 10 | 232 | 3.2 | 3.2 | 0.00 | 0.00 | 0.00 | 94 | 1016.4 |
| 20260505064309 | 10 | 248 | 0.0 | 0.0 | 0.00 | 0.00 | 0.00 | 94 | 1016.3 |
| 20260505063808 | 10 | 195 | 0.0 | 0.0 | 0.00 | 0.00 | 0.00 | 94 | 1016.4 |
| 20260505063303 | 10 | 301 | 0.0 | 1.6 | 0.00 | 0.00 | 0.00 | 94 | 1016.3 |
| 20260505062800 | 10 | 315 | 0.0 | 0.0 | 0.00 | 0.00 | 0.00 | 94 | 1016.3 |
| 20260505062258 | 10 | 343 | 3.2 | 4.8 | 0.00 | 0.00 | 0.00 | 94 | 1016.0 |
| 20260505061754 | 10 | 7 | 4.8 | 8.0 | 0.00 | 0.00 | 0.00 | 94 | 1016.3 |
| 20260505061252 | 10 | 336 | 0.0 | 0.0 | 0.00 | 0.00 | 0.00 | 94 | 1016.0 |
| 20260505060749 | 10 | 289 | 0.0 | 0.0 | 0.00 | 0.00 | 0.00 | 94 | 1015.7 |
| 20260505060246 | 10 | 305 | 0.0 | 0.0 | 0.00 | 0.00 | 0.00 | 94 | 1015.9 |
| 20260505055741 | 10 | 292 | 0.0 | 0.0 | 0.00 | 0.00 | 0.00 | 94 | 1015.8 |
| 20260505055233 | 10 | 292 | 0.0 | 0.0 | 0.00 | 0.00 | 0.00 | 94 | 1015.6 |
| 20260505054730 | 10 | 282 | 0.0 | 0.0 | 0.00 | 0.00 | 0.00 | 94 | 1015.8 |
| 20260505054228 | 9 | 266 | 0.0 | 0.0 | 0.00 | 0.00 | 0.00 | 94 | 1015.7 |
| 20260505053726 | 9 | 267 | 0.0 | 0.0 | 0.00 | 0.00 | 0.00 | 94 | 1015.7 |
| 20260505053222 | 9 | 261 | 0.0 | 0.0 | 0.00 | 0.00 | 0.00 | 93 | 1015.9 |
| 20260505052719 | 9 | 260 | 0.0 | 0.0 | 0.00 | 0.00 | 0.00 | 93 | 1015.7 |
| 20260505052216 | 9 | 208 | 0.0 | 0.0 | 0.00 | 0.00 | 0.00 | 93 | 1015.5 |
| 20260505051713 | 9 | 263 | 0.0 | 0.0 | 0.00 | 0.00 | 0.00 | 93 | 1015.5 |
| 20260505051211 | 9 | 263 | 0.0 | 0.0 | 0.00 | 0.00 | 0.00 | 93 | 1015.5 |
| 20260505050709 | 8 | 267 | 0.0 | 0.0 | 0.00 | 0.00 | 0.00 | 93 | 1015.5 |
| 20260505050207 | 8 | 256 | 0.0 | 0.0 | 0.00 | 0.00 | 0.00 | 93 | 1015.6 |
| 20260505041642 | 9 | 275 | 0.0 | 0.0 | 0.00 | 0.00 | 0.00 | 92 | 1015.5 |
| 20260505041140 | 9 | 334 | 0.0 | 0.0 | 0.00 | 0.00 | 0.00 | 92 | 1015.2 |
| 20260505040636 | 9 | 305 | 0.0 | 0.0 | 0.00 | 0.00 | 0.00 | 92 | 1015.3 |
| 20260505040134 | 9 | 304 | 0.0 | 0.0 | 0.00 | 0.00 | 0.00 | 92 | 1015.4 |
| 20260505035630 | 8 | 299 | 0.0 | 0.0 | 0.00 | 0.00 | 0.00 | 92 | 1015.5 |
| 20260505035126 | 8 | 296 | 0.0 | 0.0 | 0.00 | 0.00 | 0.00 | 92 | 1015.3 |
| 20260505034623 | 9 | 297 | 0.0 | 0.0 | 0.00 | 0.00 | 0.00 | 91 | 1015.5 |
| 20260505034120 | 9 | 298 | 0.0 | 0.0 | 0.00 | 0.00 | 0.00 | 91 | 1015.4 |
| 20260505033616 | 9 | 300 | 0.0 | 0.0 | 0.00 | 0.00 | 0.00 | 91 | 1015.6 |
| 20260505033115 | 9 | 288 | 0.0 | 0.0 | 0.00 | 0.00 | 0.00 | 91 | 1015.4 |
| 20260505032612 | 9 | 285 | 0.0 | 0.0 | 0.00 | 0.00 | 0.00 | 91 | 1015.5 |
| 20260505032109 | 9 | 286 | 0.0 | 0.0 | 0.00 | 0.00 | 0.00 | 91 | 1015.3 |
| 20260505031606 | 9 | 292 | 0.0 | 0.0 | 0.00 | 0.00 | 0.00 | 91 | 1015.2 |
| 20260505031102 | 9 | 292 | 1.6 | 1.6 | 0.00 | 0.00 | 0.00 | 91 | 1015.4 |
| 20260505030559 | 9 | 328 | 3.2 | 3.2 | 0.00 | 0.00 | 0.00 | 90 | 1015.2 |
| 20260505030055 | 9 | 314 | 1.6 | 1.6 | 0.00 | 0.00 | 0.00 | 90 | 1015.4 |
| 20260505025551 | 8 | 332 | 3.2 | 4.8 | 0.00 | 0.00 | 0.00 | 90 | 1015.2 |
| 20260505025050 | 8 | 278 | 0.0 | 0.0 | 0.00 | 0.00 | 0.00 | 90 | 1015.3 |
| 20260505024547 | 8 | 279 | 0.0 | 0.0 | 0.00 | 0.00 | 0.00 | 90 | 1015.3 |
| 20260505024044 | 8 | 282 | 0.0 | 0.0 | 0.00 | 0.00 | 0.00 | 89 | 1015.1 |
| 20260505023541 | 8 | 282 | 0.0 | 0.0 | 0.00 | 0.00 | 0.00 | 89 | 1015.3 |
| 20260505023039 | 8 | 281 | 0.0 | 0.0 | 0.00 | 0.00 | 0.00 | 89 | 1015.4 |
| 20260505022536 | 8 | 289 | 0.0 | 0.0 | 0.00 | 0.00 | 0.00 | 89 | 1015.2 |
| 20260505022033 | 8 | 292 | 0.0 | 1.6 | 0.00 | 0.00 | 0.00 | 89 | 1015.4 |
| 20260505021529 | 8 | 293 | 0.0 | 0.0 | 0.00 | 0.00 | 0.00 | 89 | 1015.2 |
| 20260505021026 | 8 | 289 | 1.6 | 1.6 | 0.00 | 0.00 | 0.00 | 89 | 1015.2 |
| 20260505020520 | 8 | 250 | 1.6 | 1.6 | 0.00 | 0.00 | 0.00 | 89 | 1015.4 |
| 20260505020018 | 8 | 263 | 0.0 | 0.0 | 0.00 | 0.00 | 0.00 | 88 | 1015.3 |
| 20260505015515 | 8 | 228 | 1.6 | 1.6 | 0.00 | 0.00 | 0.00 | 88 | 1015.3 |
| 20260505015011 | 8 | 255 | 3.2 | 3.2 | 0.00 | 0.00 | 0.00 | 88 | 1015.1 |
| 20260505014508 | 9 | 281 | 1.6 | 1.6 | 0.00 | 0.00 | 0.00 | 88 | 1015.1 |
| 20260505014006 | 9 | 303 | 1.6 | 1.6 | 0.00 | 0.00 | 0.00 | 88 | 1015.3 |
| 20260505013502 | 9 | 286 | 1.6 | 1.6 | 0.00 | 0.00 | 0.00 | 88 | 1015.0 |
| 20260505013000 | 8 | 286 | 1.6 | 3.2 | 0.00 | 0.00 | 0.00 | 88 | 1015.2 |
| 20260505012458 | 8 | 300 | 0.0 | 0.0 | 0.00 | 0.00 | 0.00 | 87 | 1015.2 |
| 20260505011954 | 8 | 301 | 1.6 | 1.6 | 0.00 | 0.00 | 0.00 | 87 | 1015.3 |
| 20260505011450 | 8 | 284 | 1.6 | 1.6 | 0.00 | 0.00 | 0.00 | 87 | 1015.3 |
| 20260505010947 | 8 | 248 | 1.6 | 3.2 | 0.00 | 0.00 | 0.00 | 86 | 1015.4 |
| 20260505010443 | 8 | 292 | 1.6 | 1.6 | 0.00 | 0.00 | 0.00 | 86 | 1015.3 |
| 20260505005939 | 8 | 308 | 3.2 | 4.8 | 0.00 | 0.00 | 0.00 | 85 | 1015.4 |
| 20260505005436 | 8 | 290 | 1.6 | 1.6 | 0.00 | 0.00 | 0.00 | 85 | 1015.5 |
| 20260505004934 | 8 | 263 | 0.0 | 0.0 | 0.00 | 0.00 | 0.00 | 85 | 1015.3 |
| 20260505004430 | 9 | 290 | 1.6 | 1.6 | 0.00 | 0.00 | 0.00 | 85 | 1015.4 |
| 20260505003927 | 9 | 291 | 1.6 | 1.6 | 0.00 | 0.00 | 0.00 | 84 | 1015.8 |
| 20260505003424 | 10 | 290 | 0.0 | 0.0 | 0.00 | 0.00 | 0.00 | 84 | 1015.7 |
| 20260505002920 | 10 | 287 | 1.6 | 1.6 | 0.00 | 0.00 | 0.00 | 84 | 1015.7 |
| 20260505002417 | 10 | 308 | 4.8 | 4.8 | 0.00 | 0.00 | 0.00 | 84 | 1015.7 |
| 20260505001915 | 10 | 293 | 1.6 | 1.6 | 0.00 | 0.00 | 0.00 | 84 | 1015.9 |
| 20260505001413 | 10 | 284 | 1.6 | 3.2 | 0.00 | 0.00 | 0.00 | 84 | 1016.0 |
| 20260505000910 | 10 | 279 | 4.8 | 8.0 | 0.00 | 0.00 | 0.00 | 83 | 1015.7 |
| 20260505000408 | 10 | 293 | 3.2 | 3.2 | 0.00 | 0.00 | 0.00 | 83 | 1015.9 |
| 20260504235904 | 10 | 304 | 3.2 | 3.2 | 0.00 | 0.00 | 0.00 | 82 | 1015.7 |
| 20260504235401 | 11 | 289 | 3.2 | 3.2 | 0.00 | 0.00 | 0.00 | 82 | 1015.9 |
| 20260504234857 | 11 | 226 | 3.2 | 4.8 | 0.00 | 0.00 | 0.00 | 82 | 1015.8 |
| 20260504234355 | 11 | 283 | 3.2 | 3.2 | 0.00 | 0.00 | 0.00 | 82 | 1015.7 |
| 20260504233851 | 11 | 217 | 3.2 | 3.2 | 0.00 | 0.00 | 0.00 | 82 | 1015.8 |
| 20260504233347 | 10 | 251 | 1.6 | 1.6 | 0.00 | 0.00 | 0.00 | 82 | 1015.8 |
| 20260504232844 | 10 | 277 | 3.2 | 4.8 | 0.00 | 0.00 | 0.00 | 83 | 1016.0 |
| 20260504232341 | 10 | 294 | 1.6 | 3.2 | 0.00 | 0.00 | 0.00 | 82 | 1015.9 |
| 20260504231838 | 11 | 323 | 3.2 | 3.2 | 0.00 | 0.00 | 0.00 | 82 | 1015.9 |
| 20260504231334 | 11 | 261 | 1.6 | 3.2 | 0.00 | 0.00 | 0.00 | 83 | 1015.6 |
| 20260504230830 | 10 | 258 | 1.6 | 3.2 | 0.00 | 0.00 | 0.00 | 83 | 1015.8 |
| 20260504230329 | 10 | 298 | 6.4 | 8.0 | 0.00 | 0.00 | 0.00 | 83 | 1015.8 |